Location: Briarstone Lake
(43.1454°N, 93.2359°W)
Time: 06:12:27
(UTC+00:00)

Envisat - Visible Passes

Search period start: 14 October 2024 00:00
Search period end: 24 October 2024 00:00
Orbit: 762 x 764 km, 98.3° (Epoch: 13 October)

Date Brightness Start Highest point End Pass type
(mag) Time Alt. Az. Time Alt. Az. Time Alt. Az.
14 Oct 4.8 09:12:46 10° NNE 09:14:57 26° NNE 09:14:57 26° NNE visible
14 Oct 4.7 10:53:04 10° NNW 10:55:06 16° NW 10:55:06 16° NW visible
15 Oct 5.6 08:35:44 10° NE 08:36:53 16° NE 08:36:53 16° NE visible
15 Oct 4.4 10:14:35 10° N 10:17:02 24° NNW 10:17:02 24° NNW visible
16 Oct 4.6 09:36:44 10° N 09:38:57 26° N 09:38:57 26° N visible
16 Oct 5.0 11:19:05 10° NW 11:19:06 10° NW 11:19:06 10° NW visible
17 Oct 5.3 08:59:20 10° NNE 09:00:53 19° NNE 09:00:53 19° NNE visible
17 Oct 4.7 10:39:06 10° NNW 10:41:02 18° NW 10:41:02 18° NW visible
18 Oct 6.0 08:22:35 10° NE 08:22:49 11° NE 08:22:49 11° NE visible
18 Oct 4.6 10:00:53 10° N 10:02:57 23° N 10:02:57 23° N visible
19 Oct 5.0 09:23:12 10° NNE 09:24:53 21° NNE 09:24:53 21° NNE visible
19 Oct 5.0 11:04:06 10° NNW 11:05:01 12° NW 11:05:01 12° NW visible
20 Oct 5.7 08:46:00 10° NNE 08:46:48 14° NE 08:46:48 14° NE visible
20 Oct 4.7 10:25:15 10° N 10:26:57 18° NNW 10:26:57 18° NNW visible
21 Oct 4.9 09:47:15 10° N 09:48:52 21° N 09:48:52 21° N visible
22 Oct 5.4 09:09:43 10° NNE 09:10:47 16° NNE 09:10:47 16° NNE visible
22 Oct 5.0 10:49:55 10° NNW 10:50:56 13° NNW 10:50:56 13° NNW visible
23 Oct 4.9 10:11:29 10° N 10:12:51 18° NNW 10:12:51 18° NNW visible
